User: anonymous   Login
Location: Unspecified
(0.0000°N, 0.0000°E)
Time: 00:05:53
(UTC+00:00)
Language:

LEMUR 2 MARACHE-FRAN - Orbit

View from above orbital plane
View from above orbital plane
View from above satellite
View from above satellite

Ground track
Ground track

The orbit is defined by the following mean orbital elements,

1 63262U          26145.65414938 +.00000000 +00000-0 +49840-3 0 00008
2 63262  97.6928  39.5411 0006500  88.0151 272.1817 14.99798097    00
Epoch (UTC): 25 May 2026 15:41:58
Eccentricity: 0.0006500
inclination: 97.6928°
perigee height: 563 km
apogee height: 572 km
right ascension of ascending node: 39.5411°
argument of perigee: 88.0151°
revolutions per day: 14.99798097
mean anomaly at epoch: 272.1817°

The dashed part of the orbit path shows where the satellite is in the earth's shadow,  

DLR